Regional Weather Roundup
Issued by NWS

Home | Current Version | Previous Version | Graphics & Text | Print | Product List | Glossary On
Versions: 1 2 3 4 5 6 7 8 9 10 11 12 13 14 15 16 17 18 19 20 21 22 23 24 25 26 27
000
ASUS45 KCYS 250710
RWRWY

WYOMING REGIONAL WEATHER ROUNDUP
NATIONAL WEATHER SERVICE CHEYENNE WY
100 AM MDT THU MAY 25 2017

NOTE:  "FAIR" INDICATES FEW OR NO CLOUDS BELOW 12,000 FEET
WITH NO SIGNIFICANT WEATHER AND/OR OBSTRUCTIONS TO VISIBILITY.

WYZ001-250800-
YELLOWSTONE NATIONAL PARK

CITY           SKY/WX    TMP DP  RH WIND       PRES   REMARKS
LK YELLOWSTONE   N/A     37  11  34 VRB6      29.66R WCI  32
W YELLOWSTONE  NOT AVBL

$$
WYZ002>013-054>058-071-098>099-250800-
NORTHERN WYOMING

CITY           SKY/WX    TMP DP  RH WIND       PRES   REMARKS
JACKSON        FAIR      50  12  22 SW10      29.61R
CODY           FAIR      48  18  30 NW8       29.56S
GREYBULL       FAIR      58  18  21 N17       29.43R
WORLAND        FAIR      56  34  43 W12       29.47S
SHERIDAN       FAIR      51  28  41 NW17      29.54R
BUFFALO        FAIR      53  30  41 NW12      29.54S
GILLETTE       FAIR      40  36  86 S3        29.51R
HULETT         FAIR      52  37  58 CALM      29.50S
NEWCASTLE      FAIR      54  46  76 NW13G18   29.45S

$$
WYZ014>020-022>026-101>103-250800-
CENTRAL WYOMING

CITY           SKY/WX    TMP DP  RH WIND       PRES   REMARKS
BIG PINEY      CLOUDY    42  37  82 N28G36    29.70S
PINEDALE       CLOUDY    41  34  75 W18G33    29.74R
DUBOIS         FAIR      46  21  36 W26G33    29.56F
LANDER         FAIR      57  41  55 N8        29.54R
RIVERTON       CLOUDY    58  38  47 SW9       29.53F
CASPER         CLOUDY    53  46  77 W12       29.58R
DOUGLAS        MOCLDY    56  47  71 NW12      29.54R

$$
WYZ021-027>030-104>119-250800-
SOUTHERN WYOMING

CITY           SKY/WX    TMP DP  RH WIND       PRES   REMARKS
EVANSTON       MOCLDY    50  43  77 N7        29.70S
KEMMERER         N/A     45  43  93 N3        29.69
ROCK SPRINGS   CLOUDY    51  42  71 SE5       29.67F
DIXON          LGT RAIN  57  42  56 NW14G24   29.73R
RAWLINS        FAIR      54  40  59 W23G37    29.67R
LARAMIE        FAIR      47  36  65 SW13      29.67F
CHEYENNE       FAIR      55  36  48 W12       29.62R
TORRINGTON     FAIR      61  39  44 W5        29.46R
PINE BLUFFS    FAIR      50  41  71 S5        29.55

$$




USA.gov is the U.S. government's official web portal to all federal, state and local government web resources and services.